LEMUR-2-ORZULAK (43731 NORAD) Tracking and Keplerian Element Data

This shows tracking and keplerian element data for the satellite.

Feedback or suggestion? Click here.




ElementValue
Catalog43731
NameLEMUR-2-ORZULAK
Epoch Orbit456
Epoch Day363.13206264
Epoch Year2018
RAAN68.1804
Inclination97.4823
Eccentricity0.0020467
Argument of Perigee217.7776
Mean Anonmoly225.9023
Mean Motion15.26656043
Decay Rate1.788E-05
L11 43731U 18096N 18363.13206264 .00001788 00000-0 70700-4 0 9999
L22 43731 97.4823 68.1804 0020467 217.7776 225.9023 15.26656043 4562

Live tracking and technical data element details for LEMUR-2-ORZULAK (NORAD 43731). LEMUR-2-ORZULAK can be tracked NOW for your location showing map with azimuth and elevation plus other details from your city location.

Track the satellite on the map from your city or location and see movement details for azimuth, elevation, latitude, longitude, range, height, and movement on the map or in text.







IsCatalogInMostPopularTable: catalog: 43731, numindb: 80
Update: records affected: 1



GetName: 43731 LEMUR-2-ORZULAK

Hit Count: updated at: Mon, 27 May 2019 03:35:17 GMT